Location: Igri�s
(42.2144°N, 0.4320°W)
Time: 17:32:53
(UTC+00:00)

Cosmos 921 Rocket - Pass Details

Date: 13 August 2020
Orbit: 572 x 631 km, 75.8° (Epoch: 18 September)

Event Time Altitude Azimuth Distance (km) Brightness Sun altitude
Rises 20:49:57 0° 343° (NNW) 2,802 7.4 -17.7°
Reaches altitude 10° 20:52:11 10° 344° (NNW) 1,893 6.4 -18.0°
Maximum altitude 20:56:23 85° 71° (ENE) 581 2.8 -18.6°
Enters shadow 20:57:45 42° 159° (SSE) 824 3.2 -18.8°
